TimeEST,TemperatureF,Dew PointF,Humidity,Sea Level PressureIn,VisibilityMPH,Wind Direction,Wind SpeedMPH,Gust SpeedMPH,PrecipitationIn,Events,Conditions,WindDirDegrees,DateUTC
12:52 AM,32.0,19.9,61,29.89,10.0,West,8.1,-,N/A,,Clear,260,2013-01-05 05:52:00
1:52 AM,32.0,19.9,61,29.91,10.0,West,8.1,-,N/A,,Clear,260,2013-01-05 06:52:00
2:52 AM,30.9,19.9,64,29.93,10.0,West,4.6,-,N/A,,Clear,270,2013-01-05 07:52:00
3:52 AM,30.9,19.0,61,29.93,10.0,West,9.2,-,N/A,,Clear,270,2013-01-05 08:52:00
4:52 AM,30.9,19.0,61,29.95,10.0,West,9.2,-,N/A,,Clear,260,2013-01-05 09:52:00
5:52 AM,30.9,19.9,64,29.99,10.0,West,8.1,-,N/A,,Clear,260,2013-01-05 10:52:00
6:52 AM,32.0,19.9,61,30.02,10.0,WSW,6.9,-,N/A,,Clear,250,2013-01-05 11:52:00
7:52 AM,33.1,21.0,61,30.06,10.0,WSW,5.8,-,N/A,,Clear,250,2013-01-05 12:52:00
8:52 AM,36.0,21.9,57,30.10,10.0,WSW,10.4,18.4,N/A,,Clear,250,2013-01-05 13:52:00
9:52 AM,39.0,21.9,50,30.13,10.0,West,9.2,16.1,N/A,,Clear,270,2013-01-05 14:52:00
10:52 AM,39.9,21.0,47,30.13,10.0,West,9.2,20.7,N/A,,Clear,280,2013-01-05 15:52:00
11:52 AM,41.0,21.9,47,30.14,10.0,WNW,11.5,19.6,N/A,,Clear,290,2013-01-05 16:52:00
12:52 PM,41.0,21.0,45,30.15,10.0,NW,10.4,23.0,N/A,,Clear,320,2013-01-05 17:52:00
1:52 PM,42.1,21.0,43,30.15,10.0,Variable,6.9,-,N/A,,Clear,0,2013-01-05 18:52:00
2:52 PM,41.0,23.0,49,30.17,10.0,Calm,Calm,-,N/A,,Clear,0,2013-01-05 19:52:00
3:52 PM,39.0,23.0,53,30.20,10.0,Calm,Calm,-,N/A,,Clear,0,2013-01-05 20:52:00
4:52 PM,32.0,21.9,66,30.22,10.0,Calm,Calm,-,N/A,,Clear,0,2013-01-05 21:52:00
5:52 PM,28.9,21.9,75,30.23,10.0,Calm,Calm,-,N/A,,Clear,0,2013-01-05 22:52:00
6:52 PM,27.0,21.0,78,30.25,10.0,Calm,Calm,-,N/A,,Clear,0,2013-01-05 23:52:00
7:52 PM,26.1,19.9,78,30.28,10.0,Calm,Calm,-,N/A,,Clear,0,2013-01-06 00:52:00
8:52 PM,25.0,21.0,85,30.25,10.0,Calm,Calm,-,N/A,,Clear,0,2013-01-06 01:52:00
9:52 PM,26.1,21.0,81,30.25,10.0,Calm,Calm,-,N/A,,Clear,0,2013-01-06 02:52:00
10:52 PM,24.1,19.9,84,30.27,10.0,Calm,Calm,-,N/A,,Clear,0,2013-01-06 03:52:00
11:52 PM,26.1,21.0,81,30.24,10.0,Calm,Calm,-,N/A,,Clear,0,2013-01-06 04:52:00